Powrót do katalogu

NOAA 16 DEB

AktywnyPO
NORAD 41421·DEBRIS·🇺🇸 United States

Wystrzelony Sep 21, 2000 z Vandenberg Space Force Base

Loading…

Następne Przeloty (najbliższe 24 godziny)

TLE

ŚwieżeSource: Space-Track

Epoka: Sep 14, 2026, 14:40 UTC

1 41421U 00055LA  26257.61134052  .00009055  00000-0  14664-2 0  9998
2 41421  98.9435 137.1042 0026006 132.0704 228.2718 14.71294886551901

Śledź NOAA 16 DEB w czasie rzeczywistym z AllMySat

Download on the App Store